User: anonymous   Login
Location: Roc des P�zouls
(43.9667°N, 3.5500°E)
Time: 02:19:17
(UTC+00:00)
Language:

CZ-4C R/B - Orbit

View from above orbital plane
View from above orbital plane
View from above satellite
View from above satellite

Ground track
Ground track

The orbit data is extracted from the following two-line orbital elements,

1 36416U 10009D   20021.04469242 -.00000028 +00000-0 +39413-4 0  9991
2 36416 063.4254 239.8388 0480411 355.2394 004.4156 13.69560360494024
Epoch (UTC): 21 January 2020 01:04:21
Eccentricity: 0.0480411
inclination: 63.4254°
perigee height: 646 km
apogee height: 1355 km
right ascension of ascending node: 239.8388°
argument of perigee: 355.2394°
revolutions per day: 13.69560360
mean anomaly at epoch: 4.4156°
orbit number at epoch: 49402

The dashed part of the orbit path shows where the satellite is in the earth's shadow,  

DLR